Regional Weather Roundup
Issued by NWS Charleston, SC

Current Version | Previous Version | Text Only | Print | Product List | Glossary Off
Versions: 1 2 3 4 5 6 7 8 9 10 11 12 13 14 15 16 17 18 19 20 21 22 23 24 25 26 27 28 29 30 31 32 33 34 35 36 37 38 39 40 41 42 43 44 45 46 47 48 49 50

000
ASUS42 KCHS 311210
RWRCHS

REGIONAL WEATHER ROUNDUP
NATIONAL WEATHER SERVICE CHARLESTON SC
800 AM EDT THU JUL 31 2014

NOTE: "FAIR" INDICATES FEW OR NO CLOUDS BELOW 12,000 FEET WITH NO
SIGNIFICANT WEATHER AND/OR OBSTRUCTIONS TO VISIBILITY.

NOT ALL STATIONS ARE QUALITY CONTROLLED BY THE NATIONAL
WEATHER SERVICE. USE DATA WITH CAUTION...ESPECIALLY
DEWPOINT OBSERVATIONS.

SCZ027-030-031-034>040-042>050-311300-
...SOUTH CAROLINA...

CITY           SKY/WX    TMP DP  RH WIND       PRES   REMARKS
N CHARLESTON   CLOUDY    79  71  76 NE5       30.03R
6HR MIN TEMP:  76; 6HR MAX TEMP:  79;

WATERFRONT PRK   N/A     81 N/A N/A NE9         N/A
FORT JOHNSON   NOT AVBL
MOUNT PLEASANT NOT AVBL
JOHNS ISLAND   NOT AVBL
PINOPOLIS        N/A     75  72  88 E9        29.96S
MONCKS CORNER  NOT AVBL
SUMMERVILLE    CLOUDY    73  72  94 CALM      30.05R
BEAUFORT MCAS  PTSUNNY   76  73  91 NE7       30.01R
6HR MIN TEMP:  75; 6HR MAX TEMP:  83; 6HR PCP:  0.02;

BEAUFORT ARPT  FAIR      77  73  88 N3        30.00S
HILTON HEAD IS PTSUNNY   82  75  78 E9        30.01R
GEORGETOWN     NOT AVBL
WALTERBORO     PTSUNNY   75 N/A N/A E7        30.03S
ORANGEBURG     CLOUDY    73  68  84 E5        30.05R
6HR MIN TEMP:  72; 6HR MAX TEMP:  73;

BARNWELL       PTSUNNY   72  70  94 NE5       30.05R
AIKEN          NOT AVBL
MANNING        NOT AVBL
KINGSTREE      NOT AVBL
COLUMBIA       CLOUDY    76  67  73 E6        30.06R
6HR MIN TEMP:  72; 6HR MAX TEMP:  76;

SUMTER         CLOUDY    71  69  93 NE7       30.06R
6HR MIN TEMP:  68; 6HR MAX TEMP:  71;

FLORENCE       CLOUDY    72  67  84 E8        30.08R
6HR MIN TEMP:  70; 6HR MAX TEMP:  72;

MYRTLE BEACH   NOT AVBL
N MYRTLE BEACH CLOUDY    73  68  84 NE7       30.07R
6HR MIN TEMP:  71; 6HR MAX TEMP:  75;


$$

GAZ063-065-086>088-099>101-113>116-118-119-134-136>141-150-311300-
...GEORGIA...

CITY           SKY/WX    TMP DP  RH WIND       PRES   REMARKS
SAVANNAH ARPT  LGT RAIN  75  73  94 E5        30.00R FOG
6HR MIN TEMP:  74; 6HR MAX TEMP:  76; 6HR PCP:  0.03;

HUNTER AAF     MOSUNNY   76  73  91 CALM      29.97S
6HR MIN TEMP:  74; 6HR MAX TEMP:  76; 6HR PCP:  0.19;

FORT STEWART   SUNNY     76  72  88 N7        29.99R
6HR MIN TEMP:  73; 6HR MAX TEMP:  76;

STATESBORO     NOT AVBL
SYLVANIA       SUNNY     75  73  95 E3        30.03R
CLAXTON        PTSUNNY   73  73 100 CALM      30.01R
THOMSON        CLOUDY    73  73 100 CALM      30.09S
AUGUSTA-BUSH   CLOUDY    74  69  85 CALM      30.04R
6HR MIN TEMP:  70; 6HR MAX TEMP:  74;

AUGUSTA-DANIEL CLOUDY    75  68  78 E7        30.05R
SWAINSBORO     FAIR      73  73 100 NE5       30.03R
VIDALIA          N/A     72  70  94 N3        30.02S
ALMA           MOSUNNY   74  71  91 CALM      30.00R
6HR MIN TEMP:  71; 6HR MAX TEMP:  74;

WAYCROSS       SUNNY     76  75  98 CALM      30.00R FOG
JESUP          FAIR      77  73  88 CALM      29.99S
BRUNSWICK      MOSUNNY   73  72  94 CALM      29.99R
SAINT SIMONS   MOSUNNY   76  74  93 W3        29.98R
6HR MIN TEMP:  75; 6HR MAX TEMP:  82;


$$

SCZ027-028-034-036>038-045-046-048>050-GAZ119-141-311300-
...LAKE AND SUPPLEMENTAL COASTAL OBSERVATIONS...

STATION/POSITION TIME  TEMP    WIND        PRES    WAVE   SWELL
                       AIR SEA DIR/SP/G            HT/PER HT/PER/DIR
                 (UTC) (F)     (DEG/KT/KT) (MB)    (FT/S) (FT/S/D)
UPR LAKE MARION  NOT AVBL
WINYAH BAY       1100   80      90/  7     1017.0S
LAKE MURRAY      1100   72      40/  3/  5 1017.6R
ACE BASIN NERRS  1100   76        CALM     1016.0S
FORT PULASKI     1200   76     140/ 16/ 28 1016.1R
SAPELO ISLAND    1100   76     130/  3     1015.0S

$$

ANZ835-935-AMZ111-154-330-350-352-354-374-450-454-472-311300-
...C-MAN AND BUOY OBSERVATIONS...

STATION/POSITION TIME  TEMP    WIND        PRES    WAVE   SWELL
                       AIR SEA DIR/SP/G            HT/PER HT/PER/DIR
                 (UTC) (F)     (DEG/KT/KT) (MB)    (FT/S) (FT/S/D)
FOLLY BEACH CMAN 1100   81      80/ 14/ 15 1016.8R
BUOY 41004       1200   82 83   80/ 16/ 17 1015.9R   3/ 5   2/ 9
BUOY 41008       1200   83 85  150/  8/ 10 1015.1R   3/ 5   2/ 90/ 5
5E ST. MARYS GA  1200      85                N/A     2/ 5
FRYING PAN BUOY  NOT AVBL
BUOY 41025       1200          VRB 10/ 12  1019.4R   3/ 6   3/ 90/ 6
CAPE LOOKOUT NC  1100   79      80/ 11/ 12 1018.7R
BUOY 41002       1149   79 80   50/  8/ 10 1018.0R   3/ 6   3/170/ 6
BUOY 41010       1200   82 84  180/ 10/ 12 1015.8R   2/ 8   2/ 90/ 8
BUOY 41012       NOT AVBL
ST AUGUSTINE FL  1200   77     340/  2/  2 1016.2R
CAPERS NEARSHORE 1100   81      90/ 12/ 16   N/A
FRIPP NEARSHORE  NOT AVBL


$$



USA.gov is the U.S. government's official web portal to all federal, state and local government web resources and services.